Regional Weather Roundup
Issued by NWS

Home | Current Version | Previous Version | Text Only | Print | Product List | Glossary On
Versions: 1 2 3 4 5 6 7 8 9 10 11 12 13 14 15 16 17 18 19 20 21 22 23 24 25 26 27 28 29 30 31 32 33 34 35 36 37 38 39 40 41 42 43 44 45 46 47 48 49 50
000
ASUS45 KTFX 201519
RWRMT
MONTANA HOURLY WEATHER ROUNDUP
NATIONAL WEATHER SERVICE GREAT FALLS MT
819 AM MST SAT DEC 20 2014

NOTE: "FAIR" INDICATES FEW OR NO CLOUDS BELOW 12000 FEET WITH NO
SIGNIFICANT WEATHER AND/OR OBSTRUCTIONS TO VISIBILITY.

* THESE STATIONS ARE NOT UNDER NWS QUALITY CONTROL. THEY DO NOT
   REPORT WEATHER SUCH AS PRECIPITATION OR FOG.

MTZ001>007-043-201600-
WEST OF THE DIVIDE
CITY           SKY/WX    TMP DP  RH WIND       PRES   REMARKS
KALISPELL      CLOUDY    28  28 100 CALM      29.91F
MISSOULA       FOG       27  25  92 CALM      29.97F VSB 1 1/4
BUTTE          PTSUNNY   19  16  88 CALM      29.93F
MULLAN PASS    FOG       27  23  85 VRB3      29.82F VSB 1 1/4
* ESSEX        N/A       28  27  96 N/A        N/A
* EUREKA APT   CLOUDY    37  30  76 S8        29.91S WCI  31
* HAMILTON APT CLOUDY    32  27  82 NW1       29.93F
* LIBBY APT    PTSUNNY   30  28  92 CALM       N/A   VSB M1/4
* LINCOLN      N/A       23  19  85 NE2        N/A
* LOOKOUT PASS N/A       27  27 100 S6         N/A   WCI  20
* POLSON       N/A       29  29 100 N/A        N/A
* RONAN APT    CLOUDY    32  30  92 N/A        N/A
* SEELEY LAKE  N/A       16  14  92 NE1        N/A
* THOMP F APT  PTSUNNY   25  24  96 E4G9       N/A
$$

MTZ008-052>055-201600-
SOUTHWEST MONTANA
CITY           SKY/WX    TMP DP  RH WIND       PRES   REMARKS
BOZEMAN        CLOUDY    28  21  75 CALM      29.95F
DILLON         PTCLDY    27  19  72 CALM      29.95S
* W YELLOWSTON CLOUDY    26  24  92 SW2G7      N/A
* THREE FORKS  CLOUDY    30  30 100 N/A        N/A
* BOULDER HILL N/A       24  16  71 SW6        N/A   WCI  17
* MONIDA PASS  N/A       24  24 100 SE9        N/A   WCI  14
* RAYNOLDS PAS N/A       23   5  46 SE6        N/A   WCI  16
* WHITEHALL    N/A       28  22  78 NE4        N/A
* WISE RIVER   N/A       19  16  88 W1G7       N/A
$$

MTZ009>010-012-014-046-048-049-054-201600-
EAST SLOPES AND CENTRAL MONTANA
CITY           SKY/WX    TMP DP  RH WIND       PRES   REMARKS
CUT BANK       PTSUNNY   32  21  64 W20       29.80S WCI  20
GREAT FALLS    PTCLDY    34  19  54 SW14      29.85F WCI  24
HELENA         CLOUDY    28  21  75 W5        29.93F WCI  22
MALMSTROM AFB  PTSUNNY   30  21  69 SW14      29.87F WCI  19
* CONRAD       PTSUNNY   27  18  69 CALM       N/A
* DEARBORN     N/A       39  19  45 S9G20      N/A   WCI  33
* EAST GLACIER N/A       30  18  61 W20G29     N/A   WCI  17
* MONARCH      N/A       30  10  43 SW14G22    N/A   WCI  19
* PENDROY      N/A       27  13  55 W3G11      N/A
* ROGERS PASS  N/A       26  19  75 E7G14      N/A   WCI  18
* SWEET GRASS  N/A       29  20  69 W14G19     N/A   WCI  18
* WHITE SULPH  N/A       24  15  68 E8         N/A   WCI  15
$$

MTZ011-013-016-021-035-040-045-047-050-051-201600-
NORTH CENTRAL MONTANA
CITY           SKY/WX    TMP DP  RH WIND       PRES   REMARKS
HAVRE          PTCLDY    30  25  82 SW16      29.84R WCI  19
LEWISTOWN      PTCLDY    30  18  61 VRB3      29.87S
* N BAR RANCH  SUNNY     34  12  40 NW10G16   29.87R WCI  26
* CHINOOK      PTCLDY    34  25  70 W6        29.84R WCI  29
* CHESTER      N/A       29  21  72 SW4        N/A
* DENTON       N/A       28  19  69 S11        N/A   WCI  18
* GEYSER       N/A       30  15  54 W13G19     N/A   WCI  20
* JUDITH GAP   N/A       31  18  59 SW16G26    N/A   WCI  20
* LOMA         N/A       31  21  66 W7         N/A   WCI  24
$$

MTZ017>020-022>027-061-062-201600-
NORTHEAST MONTANA
CITY           SKY/WX    TMP DP  RH WIND       PRES   REMARKS
GLASGOW        PTCLDY    27  21  78 S5        29.82R WCI  21
GLENDIVE       PTCLDY    25  21  85 S6        29.86S WCI  18
JORDAN         SUNNY     25  21  85 W5        29.86R WCI  19
SIDNEY         PTCLDY    23  21  92 S6        29.86R WCI  16
WOLF POINT     FOG       18  16  92 CALM      29.84S
* BEAVER HILL  N/A       28  24  85 S8         N/A   WCI  20
* CIRCLE       N/A       29  26  89 W3         N/A
* LINDSAY DVD  N/A       35  29  79 W13        N/A   WCI  26
* NAVAJO       N/A       29  27  92 SW9        N/A   WCI  21
* PLENTYWOOD A PTSUNNY   23  21  92 CALM      29.80S
* POPLAR APT   PTCLDY    19  18  96 CALM      29.84R VSB 2 1/2
* SACO         N/A       34  29  82 W9         N/A   WCI  27
$$

MTZ028>042-056>058-201600-
SOUTHCENTRAL AND SOUTHEAST MONTANA
CITY           SKY/WX    TMP DP  RH WIND       PRES   REMARKS
BAKER          SUNNY     30  25  82 W13       29.87S WCI  20
BILLINGS       PTSUNNY   30  19  64 SW16      29.92R WCI  19
LIVINGSTON     CLOUDY    37  21  52 W16       29.90F WCI  28
MILES CITY     PTSUNNY   27  23  85 S5        29.89R WCI  21
* FORSYTH APT  SUNNY     36  27  70 W6        29.91R WCI  31
* LAUREL APT   PTCLDY    27  12  53 SW5        N/A   WCI  21
* ROUNDUP APT  PTCLDY    32  19  59 SW8        N/A   WCI  25
* ALZADA       N/A       35  26  70 W4         N/A
* HYSHAM       N/A       30  21  69 W2         N/A
* LAME DEER    N/A       33  23  67 NW7        N/A   WCI  27
* REED POINT   N/A       27  22  81 E3         N/A
* ROSCOE HILL  N/A       33   9  36 S12        N/A   WCI  24
$$

REGIONAL REPORTS...DAKOTAS
CITY           SKY/WX    TMP DP  RH WIND       PRES   REMARKS
WILLISTON      CLOUDY    21  19  92 SW5       29.83F WCI  14
DICKINSON      CLOUDY    34  27  76 SW6       29.82S WCI  29
BEACH          SUNNY     30  27  89 W10       29.86R WCI  21
CROSBY         LGT SNOW  19  19 100 E7        29.82F WCI  10
TIOGA          CLOUDY    18  18 100 CALM      29.86S
WATFORD CITY   PTSUNNY   23  23 100 SE3       29.82F
BISMARCK       CLOUDY    14  12  92 E6        29.92S WCI   5
GRAND FORKS    FOG       27  25  92 SW9       30.01R VSB 3    WCI  18
FARGO          FOG       30  27  89 S12       30.03S WCI  20
BUFFALO SD     PTSUNNY   36  27  70 W10       29.80R WCI  29
RAPID CITY     CLOUDY    36  23  59 NW7       29.91R WCI  30
$$

REGIONAL REPORTS...WYOMING/IDAHO/WASHINGTON
CITY           SKY/WX    TMP DP  RH WIND       PRES   REMARKS
GILLETTE       PTSUNNY   25  19  78 S3        29.91F
SHERIDAN       SUNNY     21  18  88 SE6       29.92R WCI  13
CODY           CLOUDY    36  21  54 S12       29.92R WCI  28
YELLOWSTONE LA PTSUNNY   25  19  78 VRB5      30.00F WCI  19
SALMON         CLOUDY    27  25  92 CALM      30.00S VSB M1/4
MULLAN PASS    FOG       27  23  85 VRB3      29.82S VSB 1 1/4
SAND POINT     CLOUDY    36  36 100 N6        29.90S WCI  31
SPOKANE        CLOUDY    36  34  92 SE6       29.86F WCI  31
$$

REGIONAL REPORTS...ALBERTA
CITY           SKY/WX    TMP DP  RH WIND       PRES   REMARKS
CALGARY        PTSUNNY   30  12  47 E7        29.70S WCI  23
LETHBRIDGE     PTCLDY    36  23  59 W24G30    29.76F WCI  24
MEDICINE HAT   SUNNY     34  27  76 W20G25    29.74S WCI  23
EDMONTON       SUNNY      9   5  84 S5        29.67F
WATERTON GATE  N/A       34  18  52 SW17G25    N/A   WCI  23
CARDSTON       N/A       34  19  54 W12G20     N/A   WCI  25
MILK RIVER     N/A       21  18  88 S1         N/A
$$

REGIONAL REPORTS...SASKATCHEWAN
CITY           SKY/WX    TMP DP  RH WIND       PRES   REMARKS
SWIFT CURRENT  N/A       32  28  85 W18G24    29.69R WCI  21
REGINA         LGT SNOW  19  19 100 SE15      29.76F WCI   5
VAL MARIE      N/A       34  32  92 W15        N/A   WCI  24
ASSINIBOIA     N/A       36  32  85 SW13       N/A   WCI  27
CORONACH       N/A       28  27  96 SE5        N/A   WCI  22

$$



USA.gov is the U.S. government's official web portal to all federal, state and local government web resources and services.